Zurück zum Katalog

THORAD DELTA 1 DEB

AktivLEO
NORAD 42620·DEBRIS·🇺🇸 United States

Gestartet Nov 15, 1974 von Vandenberg Space Force Base

Loading…

Nächste Überflüge (nächste 24 Stunden)

TLE

AktuellSource: Space-Track

Epoche: Sep 13, 2026, 19:23 UTC

1 42620U 74089GM  26256.80784493  .00000137  00000-0  15725-2 0  9999
2 42620 101.1347 208.5032 0148020 338.2312  21.2499 12.23261706557633

Verfolge THORAD DELTA 1 DEB in Echtzeit mit AllMySat

Download on the App Store